GFSWCAN_925_temp_207.txt.gz
Temp
2 2 2 2 2 2 2 2 2 2 2 2 2 2 2 2 2 2 2 2 2 1 2 2 2 1 1 0 0 1 1 2 1 1 3 3 2 3 3 4 3 3 4 6 8 8 9 5 10 10 8 8 9 9
1 1 1 2 2 2 2 2 2 2 2 2 2 2 2 2 2 2 1 2 2 0 2 2 2 2 2 2 1 1 1 1 2 0 -1 -2 1 1 2 1 4 3 5 3 4 6 6 6 5 7 7 7 8 7
1 1 1 1 2 2 2 2 2 2 2 2 2 2 2 2 3 2 2 2 1 1 1 1 1 2 2 1 1 0 1 2 2 2 1 1 1 2 1 2 3 5 4 5 4 5 6 6 7 7 7 7 7 8
1 1 1 1 1 1 1 2 1 2 2 2 2 2 2 2 2 2 2 2 1 1 0 2 3 3 3 3 2 1 1 2 2 2 1 1 1 2 2 3 4 4 4 5 5 5 6 7 8 7 7 6 7 8
1 1 1 1 1 1 1 1 1 1 1 2 2 2 2 2 2 2 2 2 1 1 -2 1 2 2 2 2 2 2 1 1 1 1 1 1 2 2 3 3 2 4 3 3 4 6 6 7 7 7 6 6 6 7
1 1 1 1 1 1 1 1 1 1 1 1 1 2 2 2 2 1 1 3 3 -0 0 -1 1 2 3 3 2 2 1 1 1 0 1 1 3 2 1 2 4 4 5 5 5 7 7 7 7 7 6 6 5 6
1 1 1 1 1 1 1 1 1 1 1 1 1 2 2 2 2 1 1 3 2 1 -0 -0 -2 1 2 3 1 2 2 1 1 1 1 1 2 2 1 1 4 5 5 5 6 6 6 6 6 7 5 5 5 5
1 1 1 1 1 1 1 1 1 1 1 1 1 1 1 1 1 1 1 1 1 1 0 -1 -3 -2 3 2 2 2 2 1 0 1 1 2 2 1 1 3 4 4 5 5 5 6 6 7 7 6 6 6 5 4
0 1 1 1 1 1 1 1 1 1 1 1 1 1 1 0 -0 1 1 1 1 0 -3 -6 -5 -1 1 2 2 1 1 1 1 1 2 2 2 2 4 5 5 5 5 5 5 5 5 6 6 6 6 5 5 4
0 0 0 0 1 1 0 1 1 1 1 1 0 -0 -6 1 1 0 -0 -4 -5 -2 -1 -1 -0 -0 1 0 -0 0 1 -0 -1 -0 1 2 2 5 5 5 5 5 5 5 4 4 4 5 5 5 6 5 5 5
0 0 0 0 0 0 1 1 1 0 0 1 -1 -4 2 1 -0 -3 -7 -4 -4 -2 -2 -0 -1 -1 -0 -1 -1 -0 0 -1 1 1 1 1 2 1 2 1 1 2 3 4 5 5 5 5 5 5 6 5 4 3
0 0 0 0 0 1 1 1 1 1 0 0 0 -1 -1 -3 -4 -5 -7 -2 -2 -0 -1 -1 -2 -2 -3 -3 -1 -1 1 1 1 1 2 1 1 0 -0 -0 -0 0 1 1 2 4 5 5 5 5 4 4 2 1
0 -0 0 0 0 1 1 0 1 0 0 -0 -2 -4 -5 -9 -3 -5 -8 -6 -5 -5 -6 -3 -3 -5 -5 -4 -1 -0 2 2 1 2 3 1 -1 -2 -2 -2 -2 -2 -1 -1 1 2 3 4 4 3 2 1 0 -1
0 0 0 0 0 0 0 0 0 -0 -1 -2 -4 -5 -7 -10 -9 -7 -4 -4 -3 -3 -3 -4 -4 -4 -5 -2 -1 0 1 1 2 1 0 -1 -3 -3 -3 -3 -3 -3 -3 -2 -2 -0 2 2 0 1 0 -1 -2 -2
0 0 0 0 0 0 0 0 -0 -1 -2 -4 -9 -8 -9 -7 -9 -8 -7 -6 -5 -4 -4 -5 -5 -4 -3 -2 -1 1 1 0 -0 -2 -2 -3 -4 -4 -4 -4 -4 -3 -3 -2 -0 1 2 -1 -2 -2 -2 -2 -2 -3
-0 -0 0 -0 -0 -1 -0 -0 -1 -1 -3 -10 -10 -6 -8 -9 -7 -7 -6 -5 -5 -6 -7 -5 -4 -4 -2 -1 0 -1 -1 -2 -3 -3 -4 -4 -4 -5 -5 -5 -4 -4 -4 -3 -3 -2 -3 -3 -3 -4 -4 -4 -4 -4
-0 -0 -0 -0 -1 -1 -2 -1 -2 -8 -10 -4 -8 -7 -4 -3 -3 -4 -6 -6 -5 -6 -6 -4 -3 -2 -2 -2 -2 -3 -3 -3 -4 -4 -4 -5 -5 -5 -5 -5 -5 -4 -4 -4 -4 -4 -4 -4 -4 -5 -5 -6 -6 -6
-0 -0 -0 -1 -1 -2 -3 -3 -5 -8 -6 -8 -4 -4 -3 -3 -5 -5 -7 -7 -6 -5 -4 -4 -4 -5 -5 -5 -4 -5 -6 -3 -4 -4 -5 -6 -6 -6 -6 -5 -5 -5 -5 -5 -5 -5 -5 -5 -5 -5 -6 -6 -6 -7
-1 -0 -1 -1 -2 -2 -4 -7 -6 -8 -8 -7 -5 -4 -3 -4 -5 -6 -7 -7 -6 -6 -5 -6 -7 -7 -6 -5 -7 -7 -4 -4 -4 -4 -6 -6 -7 -7 -7 -7 -6 -6 -6 -6 -6 -6 -6 -6 -6 -6 -6 -6 -7 -7
-1 -1 -2 -2 -3 -2 -10 -10 -7 -9 -8 -6 -5 -4 -4 -4 -6 -6 -7 -7 -7 -7 -8 -8 -8 -8 -8 -8 -8 -7 -6 -5 -5 -5 -5 -6 -6 -7 -7 -7 -7 -7 -7 -7 -6 -7 -7 -7 -7 -6 -6 -7 -7 -7
-2 -3 -2 -3 -3 -4 -11 -15 -11 -10 -8 -7 -5 -4 -4 -6 -6 -7 -8 -7 -9 -10 -10 -10 -10 -9 -8 -9 -9 -8 -7 -7 -7 -7 -6 -7 -7 -8 -8 -8 -8 -8 -8 -8 -8 -8 -8 -9 -9 -8 -8 -8 -8 -7
-3 -3 -3 -4 -5 -9 -14 -11 -12 -11 -10 -7 -5 -5 -5 -6 -8 -8 -8 -10 -10 -10 -10 -11 -10 -9 -9 -9 -10 -10 -9 -8 -8 -8 -8 -9 -9 -9 -9 -10 -9 -9 -10 -10 -10 -9 -9 -9 -9 -9 -9 -9 -8 -8
-3 -4 -4 -6 -11 -13 -10 -11 -11 -12 -8 -9 -6 -6 -6 -6 -7 -8 -9 -9 -9 -10 -11 -11 -11 -9 -10 -10 -10 -10 -11 -10 -10 -10 -10 -10 -11 -11 -11 -11 -11 -11 -11 -11 -11 -12 -11 -10 -10 -10 -10 -9 -9 -10
-4 -7 -12 -12 -16 -10 -18 -16 -16 -13 -12 -10 -8 -7 -6 -7 -7 -8 -9 -9 -9 -10 -11 -12 -11 -10 -9 -10 -11 -11 -12 -11 -11 -12 -12 -11 -10 -11 -12 -12 -12 -12 -12 -12 -12 -12 -11 -11 -11 -10 -10 -10 -10 -11
-8 -9 -13 -12 -20 -14 -15 -15 -16 -12 -11 -12 -10 -8 -8 -8 -7 -8 -8 -9 -10 -11 -12 -12 -12 -11 -11 -11 -11 -12 -12 -13 -12 -12 -13 -13 -12 -11 -12 -12 -13 -13 -12 -12 -13 -12 -12 -11 -11 -11 -10 -10 -11 -11
-9 -13 -11 -13 -13 -11 -14 -11 -13 -13 -15 -13 -12 -12 -10 -9 -8 -8 -9 -11 -11 -12 -13 -13 -13 -12 -12 -13 -13 -13 -14 -12 -12 -13 -14 -13 -13 -14 -14 -14 -13 -12 -12 -12 -12 -12 -12 -11 -11 -11 -11 -11 -11 -11
-9 -10 -13 -10 -11 -10 -10 -10 -11 -13 -15 -14 -14 -12 -10 -10 -10 -10 -11 -12 -12 -13 -14 -14 -14 -14 -14 -15 -15 -14 -13 -13 -13 -13 -13 -13 -13 -13 -14 -14 -15 -13 -13 -12 -12 -12 -11 -11 -11 -11 -11 -12 -12 -11
-13 -12 -10 -13 -12 -13 -13 -14 -14 -14 -15 -12 -12 -13 -10 -11 -11 -12 -12 -13 -14 -14 -14 -14 -14 -14 -14 -14 -14 -13 -12 -12 -12 -12 -12 -12 -12 -12 -12 -12 -12 -12 -12 -11 -11 -11 -10 -10 -11 -11 -12 -12 -12 -12
-13 -13 -11 -14 -16 -16 -14 -11 -10 -11 -11 -13 -14 -15 -16 -13 -14 -13 -13 -14 -13 -13 -14 -14 -14 -13 -13 -14 -14 -14 -13 -12 -12 -17 -17 -17 -15 -12 -12 -12 -11 -11 -11 -11 -11 -11 -10 -10 -11 -11 -11 -12 -12 -12
-13 -13 -13 -18 -15 -13 -12 -11 -12 -15 -13 -14 -13 -15 -15 -15 -15 -14 -14 -14 -14 -14 -15 -15 -15 -14 -15 -14 -14 -13 -14 -14 -14 -16 -19 -19 -15 -14 -12 -12 -11 -11 -11 -11 -11 -11 -11 -11 -11 -11 -12 -11 -12 -12
-13 -15 -16 -17 -16 -15 -13 -13 -12 -12 -15 -18 -18 -18 -16 -16 -14 -14 -14 -14 -14 -14 -14 -14 -14 -15 -15 -15 -15 -15 -14 -14 -14 -15 -15 -15 -14 -13 -12 -11 -11 -11 -11 -11 -11 -11 -11 -11 -11 -11 -11 -12 -12 -12
-14 -15 -14 -15 -15 -15 -14 -12 -12 -13 -15 -14 -16 -20 -19 -17 -16 -15 -14 -14 -14 -14 -14 -15 -15 -14 -14 -14 -14 -14 -14 -14 -14 -14 -14 -14 -13 -12 -11 -11 -10 -10 -10 -11 -11 -11 -11 -11 -12 -12 -12 -12 -13 -13
-20 -21 -22 -19 -16 -14 -13 -13 -14 -14 -14 -15 -15 -16 -16 -14 -15 -15 -14 -14 -14 -14 -14 -14 -14 -14 -13 -13 -13 -13 -14 -14 -14 -14 -14 -14 -12 -11 -11 -10 -10 -10 -10 -10 -11 -11 -12 -12 -12 -12 -13 -13 -13 -13

GFSWCAN_925_temp_213.txt.gz
Temp
1 1 1 1 2 1 2 2 2 2 2 2 2 2 2 2 2 2 2 2 1 1 1 0 1 0 1 -1 -0 0 0 -1 -1 -1 -1 0 -3 1 -1 1 -0 1 1 1 2 2 2 4 4 3 4 6 4 3
1 1 1 1 1 1 1 1 1 2 2 2 2 2 2 2 2 2 2 2 1 0 1 2 2 2 2 2 1 0 0 -0 1 -1 -4 -4 -0 -1 0 -1 1 0 1 1 2 2 5 6 5 5 4 3 4 4
1 1 1 1 1 1 1 1 1 2 2 2 2 2 2 2 2 2 2 2 1 0 0 -0 0 3 2 2 2 -0 1 1 1 1 -0 -0 -1 1 -0 0 -1 1 1 0 1 2 3 3 4 4 5 4 5 6
1 1 1 1 1 1 1 1 1 1 1 1 2 2 1 2 2 2 1 1 1 1 -0 1 3 2 3 3 2 1 1 1 1 1 -0 -0 -0 0 0 1 0 2 2 2 1 2 3 3 4 4 5 5 5 5
1 1 1 1 1 1 1 1 1 1 1 1 1 1 1 1 2 2 1 1 1 0 -3 -0 2 2 2 1 1 0 -1 -1 -0 -0 -0 -0 1 1 1 1 0 2 1 1 0 3 3 3 4 5 4 4 5 5
1 1 1 1 1 1 1 1 1 1 1 1 1 1 1 1 1 1 -1 2 2 -1 -1 -4 0 1 3 2 1 -0 -0 -0 -1 -1 -1 -0 1 1 -0 0 3 3 4 4 3 3 4 4 4 4 4 4 4 5
1 1 1 1 1 1 1 1 1 1 1 1 1 1 1 1 1 1 0 2 1 -0 -0 -0 -3 0 1 1 -1 -1 0 -0 -0 0 -0 0 0 0 0 0 3 2 1 0 1 1 0 1 1 3 3 4 4 5
1 1 1 1 1 1 1 1 1 1 1 1 1 1 1 1 1 1 1 0 0 0 -1 -3 -4 -3 1 1 -1 -1 1 1 0 1 0 1 0 0 -0 -2 -2 -1 -0 -0 1 0 -1 -1 0 2 3 3 3 3
0 0 0 0 0 0 0 1 1 1 1 1 0 1 1 -0 -1 0 0 -0 -1 -1 -1 -6 -3 -2 -1 -1 -1 -1 -1 -2 -1 -1 0 1 1 1 -3 -3 -3 -2 -2 -2 -2 -1 -1 -2 -0 1 3 3 2 3
0 0 0 0 0 0 0 0 1 1 0 1 1 -0 -6 0 -0 0 -1 -5 -6 -6 -1 -4 -2 -3 -2 -5 -4 -4 -6 -3 -3 -0 0 1 1 -1 -1 -2 -3 -3 -3 -3 -4 -3 -2 -2 -1 -1 -1 1 2 3
0 0 0 0 0 0 0 0 1 1 0 0 -0 -4 0 -1 -1 -4 -6 -6 -11 -9 -11 -3 -2 -4 -3 -5 -5 -4 -5 -3 -1 0 1 1 -1 -1 -2 -3 -3 -3 -3 -3 -3 -3 -3 -3 -3 -2 -2 -0 1 2
-0 0 -0 -0 0 0 0 0 0 0 0 -0 -0 -1 -2 -6 -9 -7 -12 -10 -8 -6 -6 -6 -6 -5 -6 -6 -5 -5 -3 -2 -1 0 1 -0 0 -2 -4 -5 -5 -4 -5 -5 -4 -4 -3 -3 -3 -2 -2 -1 1 2
-0 -0 -0 -0 0 0 -0 -0 -0 -0 -0 -1 -2 -3 -6 -8 -8 -6 -10 -9 -9 -6 -5 -6 -7 -6 -8 -7 -4 -3 -3 -1 0 -1 -1 -3 -2 -4 -5 -5 -5 -5 -5 -5 -4 -4 -3 -3 -3 -3 -2 -0 0 -1
-0 -0 -0 -0 -0 -0 -0 -1 -1 -0 -1 -1 -3 -5 -7 -12 -11 -9 -8 -7 -4 -4 -4 -5 -8 -7 -9 -7 -4 -3 -2 -1 -3 -4 -4 -3 -4 -5 -5 -6 -6 -6 -5 -5 -5 -2 -3 -3 -3 -2 -2 -2 -2 -3
-0 -0 -0 0 0 -0 -1 -1 -2 -2 -2 -6 -7 -6 -11 -9 -11 -8 -7 -6 -4 -4 -5 -8 -10 -7 -7 -4 -3 -2 -2 -3 -2 -3 -3 -4 -5 -6 -6 -6 -6 -6 -6 -6 -5 -5 -4 -3 -4 -4 -4 -4 -4 -4
-0 -0 -0 -0 -1 -1 -1 -2 -2 -2 -4 -5 -8 -7 -12 -10 -7 -7 -6 -6 -6 -8 -11 -11 -10 -7 -4 -3 -2 -3 -4 -3 -4 -5 -4 -5 -6 -7 -7 -7 -7 -7 -7 -6 -6 -6 -6 -6 -6 -6 -6 -6 -6 -6
-1 -1 -1 -1 -1 -1 -1 -2 -2 -5 -4 -7 -8 -10 -9 -7 -6 -6 -5 -5 -6 -8 -9 -8 -6 -4 -4 -4 -4 -4 -5 -6 -6 -6 -6 -7 -8 -8 -8 -8 -8 -8 -7 -7 -7 -6 -6 -6 -6 -6 -6 -7 -7 -7
-1 -1 -1 -1 -1 -1 -2 -3 -7 -12 -9 -15 -10 -7 -4 -6 -6 -6 -7 -7 -8 -8 -6 -6 -6 -7 -6 -6 -6 -7 -7 -7 -6 -5 -6 -8 -8 -8 -8 -8 -8 -8 -8 -7 -7 -7 -7 -7 -6 -6 -7 -7 -7 -7
-1 -1 -1 -1 -2 -2 -4 -8 -7 -9 -12 -14 -10 -7 -4 -5 -6 -7 -8 -8 -7 -7 -7 -8 -9 -9 -8 -7 -8 -8 -8 -8 -7 -6 -7 -8 -8 -9 -9 -9 -9 -9 -9 -8 -8 -8 -8 -8 -8 -7 -7 -7 -7 -8
-1 -1 -1 -2 -3 -3 -10 -11 -8 -7 -8 -10 -9 -7 -4 -6 -7 -7 -8 -8 -8 -9 -10 -10 -10 -10 -10 -9 -9 -9 -9 -8 -7 -7 -7 -7 -9 -9 -9 -10 -9 -10 -10 -9 -9 -8 -9 -9 -9 -9 -8 -8 -8 -9
-2 -2 -2 -3 -3 -5 -10 -17 -14 -13 -12 -11 -10 -7 -7 -6 -7 -9 -10 -8 -10 -11 -10 -10 -10 -10 -10 -10 -10 -10 -9 -9 -8 -9 -9 -8 -9 -10 -10 -11 -10 -10 -11 -11 -11 -10 -10 -10 -11 -11 -10 -9 -10 -10
-2 -3 -3 -4 -5 -8 -14 -13 -14 -14 -14 -14 -12 -9 -10 -9 -9 -8 -8 -10 -11 -10 -10 -11 -10 -10 -9 -10 -11 -11 -10 -10 -10 -10 -9 -10 -10 -10 -11 -12 -12 -11 -11 -12 -12 -12 -12 -11 -10 -11 -11 -11 -10 -9
-3 -4 -4 -6 -11 -13 -12 -13 -13 -17 -10 -12 -14 -11 -11 -11 -9 -8 -9 -10 -10 -11 -11 -11 -11 -10 -10 -11 -11 -11 -11 -11 -11 -12 -12 -11 -11 -11 -12 -12 -13 -13 -12 -12 -12 -12 -13 -11 -11 -11 -11 -11 -11 -11
-5 -6 -12 -13 -17 -12 -20 -17 -19 -16 -17 -15 -14 -11 -11 -11 -10 -11 -9 -9 -10 -11 -12 -12 -11 -10 -10 -11 -11 -12 -13 -12 -12 -13 -13 -13 -12 -12 -12 -13 -13 -13 -13 -13 -13 -12 -12 -12 -12 -11 -11 -11 -12 -12
-7 -10 -12 -12 -20 -13 -13 -15 -17 -14 -12 -16 -13 -12 -12 -12 -12 -12 -10 -10 -10 -11 -12 -12 -12 -12 -11 -11 -11 -12 -13 -13 -13 -14 -14 -14 -14 -13 -13 -12 -13 -13 -13 -13 -13 -13 -12 -12 -12 -12 -11 -11 -12 -12
-8 -13 -12 -14 -13 -11 -12 -10 -14 -14 -16 -14 -15 -16 -16 -13 -12 -11 -11 -11 -11 -12 -13 -13 -13 -12 -12 -13 -13 -13 -13 -13 -13 -13 -14 -14 -14 -15 -15 -15 -14 -13 -13 -13 -13 -12 -12 -12 -12 -12 -12 -12 -13 -12
-9 -11 -15 -11 -10 -10 -10 -11 -12 -14 -15 -14 -16 -15 -14 -11 -12 -12 -12 -13 -12 -13 -14 -14 -14 -14 -14 -14 -14 -13 -13 -13 -13 -12 -13 -13 -13 -14 -14 -15 -15 -13 -13 -12 -12 -12 -12 -12 -12 -12 -12 -13 -13 -13
-12 -14 -11 -12 -11 -12 -11 -14 -15 -14 -15 -14 -13 -14 -14 -12 -12 -13 -13 -13 -13 -13 -13 -14 -14 -14 -14 -14 -14 -13 -12 -11 -11 -11 -12 -12 -12 -12 -13 -12 -12 -13 -12 -12 -12 -11 -11 -11 -11 -12 -12 -12 -13 -13
-13 -12 -11 -14 -15 -14 -14 -14 -14 -13 -11 -12 -12 -13 -16 -15 -15 -14 -14 -14 -13 -13 -14 -14 -14 -13 -13 -13 -14 -14 -14 -13 -11 -18 -18 -18 -15 -13 -13 -12 -12 -11 -12 -11 -11 -11 -11 -11 -12 -11 -12 -12 -12 -13
-14 -13 -14 -15 -14 -12 -14 -14 -15 -14 -13 -14 -13 -14 -14 -15 -14 -14 -14 -14 -14 -14 -14 -14 -14 -14 -14 -14 -14 -13 -14 -14 -14 -15 -19 -19 -15 -14 -13 -12 -12 -11 -11 -11 -11 -11 -11 -11 -11 -11 -12 -12 -12 -12
-14 -13 -14 -15 -15 -18 -18 -15 -12 -13 -15 -16 -18 -18 -16 -19 -15 -14 -14 -14 -14 -14 -14 -14 -14 -14 -14 -15 -15 -14 -13 -14 -14 -15 -15 -15 -14 -13 -12 -11 -11 -11 -11 -11 -11 -11 -11 -11 -11 -12 -12 -12 -12 -13
-14 -14 -13 -14 -16 -17 -15 -15 -14 -13 -15 -14 -14 -21 -21 -18 -16 -15 -14 -14 -14 -14 -14 -14 -14 -14 -14 -14 -14 -14 -14 -14 -14 -14 -14 -14 -14 -12 -12 -11 -10 -10 -11 -11 -11 -11 -11 -12 -12 -12 -12 -13 -13 -13
-19 -19 -18 -17 -16 -16 -16 -15 -16 -16 -15 -16 -15 -15 -16 -15 -15 -15 -15 -14 -14 -14 -14 -14 -14 -14 -13 -13 -13 -13 -13 -13 -13 -13 -14 -14 -13 -12 -11 -10 -10 -10 -11 -11 -11 -11 -12 -12 -12 -13 -13 -13 -13 -13

GFSWCAN_925_temp_219.txt.gz
Temp
2 1 1 1 1 2 2 2 2 2 2 2 2 2 2 2 2 2 3 2 1 2 3 4 4 4 4 4 3 4 3 4 2 2 3 4 3 4 4 4 4 3 3 3 4 3 2 8 7 5 6 7 7 7
1 2 1 1 1 2 2 2 2 2 2 2 2 2 2 2 2 2 2 2 1 1 3 3 3 3 3 3 3 3 3 3 4 2 3 3 3 3 2 2 5 3 3 3 3 4 6 7 6 6 7 6 7 6
1 1 1 1 1 1 1 2 2 2 1 2 2 2 2 2 2 1 1 2 1 2 3 4 5 5 4 3 3 2 3 4 4 4 1 2 1 3 2 3 3 4 5 3 2 3 5 6 6 6 7 7 7 7
1 1 1 1 1 1 1 1 1 1 1 1 1 2 2 1 1 1 1 2 1 2 1 3 4 4 4 4 3 3 3 3 3 3 1 1 1 3 3 4 3 4 4 2 3 4 5 5 6 6 6 5 5 6
1 1 1 1 1 1 1 1 1 1 1 1 1 1 1 1 1 1 1 1 2 1 1 3 3 4 4 4 3 3 3 3 3 2 1 1 3 2 2 2 2 2 0 0 1 1 1 3 4 4 3 3 4 4
1 1 1 1 1 1 1 1 1 1 1 1 1 1 1 1 1 1 3 1 1 1 1 1 4 4 3 3 3 3 3 3 3 2 2 3 3 1 1 2 3 -1 1 1 0 1 1 2 2 2 2 2 2 2
0 1 1 1 1 1 1 1 1 1 1 1 1 1 1 1 1 1 2 1 0 -1 0 1 2 4 2 3 4 4 4 4 4 2 1 2 2 1 1 1 -0 0 0 -0 -0 -0 -1 -0 -1 -0 0 1 1 1
0 0 1 0 0 1 0 1 1 1 1 1 1 1 1 1 1 1 0 -0 -1 0 1 0 1 2 2 3 2 4 3 4 3 2 2 1 1 0 -0 -0 -0 -1 -1 -2 -2 -2 -2 -2 -1 -1 -0 0 0 1
0 0 0 0 0 0 0 0 1 1 1 1 1 2 1 1 2 0 -0 -0 -1 -0 0 1 1 1 1 2 3 3 3 1 3 1 1 1 0 -1 -2 -2 -3 -3 -4 -4 -4 -3 -2 -2 -2 -1 -1 -1 -1 0
0 0 0 0 0 0 0 0 0 0 1 1 1 0 1 -1 -1 -1 -1 0 -0 -2 -0 0 1 0 1 1 1 1 1 -0 -0 2 1 1 -0 -0 -1 -2 -3 -4 -5 -5 -5 -4 -4 -4 -3 -2 -2 -2 -1 -0
0 0 0 -0 -0 0 0 0 0 -0 0 -0 -1 0 -1 -0 -1 -1 -1 -1 -3 -1 -1 0 -0 -0 2 -1 -0 0 -1 0 -0 2 1 1 -0 -2 -2 -3 -4 -5 -5 -5 -5 -4 -4 -4 -2 -2 -2 -3 -2 -1
-0 -0 0 -0 -0 -0 0 -0 -0 -0 -1 -1 -1 -1 -2 -2 -1 -1 -3 -3 -2 -1 -0 -1 -1 -1 -1 -2 -2 -1 -1 -0 0 1 1 -0 -1 -2 -4 -5 -5 -6 -6 -6 -6 -5 -4 -4 -2 -2 -2 -2 -1 -1
-0 0 -0 -0 -0 -0 -0 -0 -1 -1 -1 -2 -1 -1 -2 -2 -2 -1 -1 -0 -1 -0 -1 -2 -2 -2 -2 -2 -3 -2 -1 -0 1 0 -1 -2 -2 -4 -5 -6 -6 -6 -7 -6 -6 -5 -5 -5 -5 -4 -3 -3 -4 -3
-0 -0 -0 -0 -0 -0 -0 -1 -1 -1 -1 -1 -2 -2 -3 -1 -1 -1 -1 -2 -2 -3 -3 -3 -3 -3 -2 -3 -2 -2 -0 -0 -1 -2 -2 -3 -4 -5 -6 -6 -7 -7 -7 -7 -7 -6 -6 -6 -6 -6 -6 -6 -5 -4
-0 -0 -0 -1 -1 -1 -1 -1 -1 -2 -1 -2 -2 -2 -2 -2 -3 -3 -4 -4 -3 -3 -4 -4 -4 -4 -4 -3 -2 -2 -1 -2 -2 -3 -3 -4 -6 -7 -7 -8 -8 -8 -8 -7 -7 -7 -6 -6 -6 -6 -7 -7 -6 -7
-1 -0 -0 -1 -1 -1 -1 -1 -2 -2 -4 -2 -3 -3 -2 -4 -2 -2 -3 -4 -5 -5 -5 -5 -5 -5 -4 -3 -2 -3 -2 -3 -3 -5 -5 -5 -7 -7 -8 -8 -9 -9 -9 -8 -8 -8 -7 -7 -7 -7 -7 -7 -7 -7
-1 -1 -1 -1 -1 -1 -2 -2 -2 -4 -3 -3 -3 -4 -4 -4 -4 -3 -4 -5 -6 -6 -5 -5 -5 -4 -4 -3 -4 -4 -5 -5 -6 -5 -5 -7 -8 -8 -9 -9 -9 -9 -9 -9 -8 -8 -8 -7 -7 -7 -7 -7 -8 -8
-1 -1 -1 -1 -2 -2 -3 -3 -3 -4 -3 -3 -4 -2 -4 -3 -3 -4 -5 -6 -6 -5 -5 -5 -6 -5 -5 -5 -5 -6 -6 -6 -6 -6 -5 -7 -8 -9 -9 -9 -9 -9 -9 -9 -8 -8 -8 -9 -8 -8 -8 -8 -8 -8
-1 -1 -1 -2 -2 -2 -4 -6 -6 -4 -4 -5 -5 -5 -4 -3 -5 -6 -6 -6 -6 -6 -6 -6 -7 -6 -6 -7 -7 -7 -7 -7 -7 -7 -6 -7 -9 -9 -9 -9 -9 -9 -9 -9 -9 -8 -8 -9 -9 -8 -8 -8 -8 -8
-1 -1 -2 -2 -2 -3 -4 -6 -8 -6 -5 -5 -6 -4 -4 -4 -5 -6 -6 -6 -7 -7 -8 -8 -7 -8 -8 -8 -8 -8 -8 -8 -7 -7 -6 -7 -8 -9 -9 -10 -10 -9 -9 -10 -9 -9 -9 -9 -10 -10 -8 -8 -9 -8
-2 -2 -2 -3 -3 -4 -7 -7 -6 -6 -7 -6 -6 -6 -4 -5 -5 -6 -7 -7 -8 -9 -8 -8 -8 -8 -9 -9 -10 -10 -9 -9 -8 -8 -8 -8 -9 -9 -10 -10 -10 -10 -10 -10 -10 -10 -10 -10 -11 -10 -10 -10 -9 -10
-2 -3 -3 -4 -5 -6 -8 -12 -10 -10 -9 -7 -6 -7 -5 -5 -6 -7 -7 -8 -8 -8 -8 -9 -8 -9 -8 -9 -10 -10 -10 -10 -10 -9 -9 -10 -10 -10 -10 -11 -11 -11 -11 -11 -11 -11 -11 -11 -10 -11 -11 -11 -11 -10
-3 -4 -5 -6 -6 -7 -8 -12 -8 -9 -6 -6 -7 -6 -6 -6 -7 -7 -7 -8 -8 -9 -10 -9 -10 -10 -9 -10 -10 -11 -11 -10 -10 -11 -11 -11 -10 -11 -11 -11 -11 -12 -12 -12 -12 -11 -11 -11 -11 -11 -12 -12 -12 -12
-4 -6 -8 -8 -9 -7 -11 -9 -10 -9 -8 -7 -7 -6 -7 -7 -8 -7 -6 -7 -8 -10 -10 -10 -10 -9 -9 -10 -10 -11 -12 -11 -11 -11 -13 -12 -11 -11 -12 -12 -12 -12 -13 -12 -12 -12 -12 -12 -12 -12 -11 -12 -12 -13
-5 -8 -9 -8 -14 -9 -8 -7 -8 -7 -6 -9 -8 -7 -8 -10 -7 -7 -7 -7 -8 -9 -10 -10 -10 -10 -9 -9 -10 -11 -12 -13 -12 -12 -13 -13 -13 -12 -12 -12 -12 -12 -13 -13 -13 -12 -12 -12 -12 -12 -12 -11 -12 -13
-6 -9 -8 -6 -9 -7 -6 -6 -7 -7 -8 -8 -8 -9 -10 -8 -8 -7 -7 -8 -9 -10 -10 -10 -10 -10 -10 -11 -11 -11 -13 -13 -13 -13 -12 -13 -14 -14 -13 -13 -13 -12 -13 -14 -14 -13 -12 -12 -12 -13 -13 -13 -13 -13
-7 -6 -9 -10 -8 -8 -8 -8 -9 -8 -9 -9 -8 -9 -8 -9 -7 -7 -10 -11 -10 -12 -12 -12 -12 -12 -11 -12 -13 -13 -13 -13 -13 -13 -13 -13 -13 -13 -14 -15 -15 -13 -13 -13 -12 -12 -12 -12 -13 -13 -13 -13 -13 -14
-7 -8 -8 -9 -9 -9 -9 -9 -9 -8 -7 -9 -9 -9 -9 -7 -7 -10 -11 -13 -13 -13 -13 -13 -13 -13 -13 -13 -13 -12 -12 -12 -12 -12 -12 -12 -12 -13 -13 -13 -13 -13 -12 -12 -13 -12 -12 -12 -12 -12 -13 -13 -13 -13
-9 -9 -9 -12 -11 -11 -10 -8 -8 -8 -9 -9 -8 -7 -9 -11 -13 -13 -13 -14 -13 -13 -13 -13 -13 -13 -13 -13 -12 -13 -13 -13 -13 -14 -13 -12 -13 -13 -13 -13 -12 -12 -12 -12 -11 -12 -11 -12 -12 -12 -12 -13 -13 -13
-10 -10 -9 -11 -9 -8 -9 -10 -10 -12 -12 -11 -11 -12 -12 -13 -14 -14 -14 -14 -14 -13 -13 -13 -13 -14 -14 -14 -14 -13 -13 -13 -13 -14 -14 -14 -14 -14 -13 -12 -12 -12 -12 -12 -12 -12 -11 -12 -12 -12 -12 -12 -13 -13
-11 -10 -10 -10 -10 -12 -13 -14 -14 -12 -13 -12 -14 -12 -11 -14 -14 -14 -14 -14 -14 -14 -14 -14 -14 -14 -14 -14 -14 -14 -13 -13 -13 -14 -14 -14 -14 -13 -12 -12 -11 -12 -12 -12 -12 -12 -12 -12 -12 -13 -13 -13 -13 -13
-12 -11 -10 -11 -11 -14 -14 -13 -12 -12 -12 -12 -12 -14 -14 -13 -12 -14 -14 -14 -14 -14 -14 -13 -14 -14 -13 -14 -14 -14 -13 -13 -14 -14 -14 -14 -14 -13 -12 -12 -11 -11 -12 -12 -12 -12 -12 -12 -13 -13 -13 -13 -13 -13
-15 -14 -14 -13 -14 -13 -13 -13 -14 -15 -14 -13 -13 -13 -13 -12 -11 -14 -15 -15 -14 -14 -14 -14 -14 -14 -13 -13 -13 -13 -13 -13 -13 -13 -14 -14 -13 -12 -12 -11 -11 -11 -12 -12 -12 -12 -12 -12 -13 -13 -13 -13 -13 -13

GFSWCAN_925_temp_222.txt.gz
Temp
2 2 2 1 2 2 2 2 2 2 2 2 2 2 2 2 2 2 2 2 1 1 2 3 4 3 2 2 1 2 1 2 1 0 1 1 1 1 1 1 1 1 1 1 2 1 0 6 5 3 4 4 5 5
1 2 1 1 2 1 2 2 2 2 2 2 2 2 2 2 2 2 2 2 2 1 2 2 2 3 3 3 2 1 1 1 1 -0 -0 0 0 0 0 -1 2 1 2 1 1 1 4 4 3 4 5 4 4 4
1 1 1 1 1 1 2 2 2 2 2 2 2 2 2 2 2 2 1 2 1 1 2 3 3 4 5 4 4 1 1 3 2 1 0 -0 -1 1 0 1 2 2 3 2 -0 2 3 3 4 5 5 4 4 4
1 1 1 1 1 1 1 1 1 1 1 1 1 2 2 2 2 2 1 1 1 1 -0 2 4 4 4 4 4 4 3 3 3 1 0 -0 -0 1 1 1 0 1 1 -0 0 1 0 2 2 2 3 2 2 2
1 1 1 1 1 1 1 1 1 1 1 1 1 1 1 1 1 1 2 2 1 1 -1 1 2 4 4 4 4 4 3 2 1 -0 -1 -1 1 1 1 1 0 -1 -2 -2 -2 -1 -1 -1 0 0 -0 0 1 1
1 1 1 1 1 1 1 1 1 1 1 1 1 1 1 1 1 1 1 1 1 1 -0 -2 2 3 3 3 3 3 3 2 0 -1 -2 0 2 1 -0 1 -1 -1 -1 -1 -3 -2 -2 -2 -2 -2 -2 -2 -2 -2
1 1 1 1 1 1 1 1 1 1 1 1 1 1 1 1 1 1 0 1 0 0 -1 -3 -2 3 3 2 3 2 3 1 1 -0 -1 1 1 -0 -0 -2 -2 -2 -2 -3 -3 -3 -5 -4 -4 -3 -3 -3 -2 -2
0 0 1 1 0 0 1 1 1 1 1 1 1 1 1 1 1 1 -0 0 -0 -0 0 -3 -3 -1 1 1 -1 2 1 1 0 1 1 0 -0 -2 -3 -3 -3 -3 -4 -4 -5 -5 -5 -4 -3 -3 -3 -3 -3 -3
0 0 0 0 0 0 0 0 0 0 0 1 1 1 1 0 1 -0 -1 -2 -2 -1 -4 -4 -3 -3 0 -0 -0 -1 0 -3 1 0 0 0 -1 -3 -3 -4 -4 -5 -5 -6 -6 -5 -4 -5 -4 -3 -3 -3 -3 -3
0 0 0 0 0 0 0 0 0 0 1 1 1 0 -2 -1 -0 -1 -1 -1 -1 -2 -3 -3 -2 -3 -1 -2 -4 -4 -3 -2 -2 0 0 -1 -2 -2 -3 -4 -5 -6 -6 -6 -7 -6 -6 -5 -4 -4 -3 -2 -2 -3
-0 0 -0 -0 -0 -0 0 0 -0 -0 0 0 -1 -2 -1 -0 -1 -2 -5 -5 -7 -5 -4 -4 -3 -2 -1 -5 -4 -3 -3 -2 -2 0 -1 -1 -4 -4 -4 -5 -5 -6 -7 -7 -7 -6 -6 -5 -5 -5 -4 -3 -3 -3
-0 -0 -0 -0 -0 -0 0 -0 -0 -1 -1 -1 -1 -1 -1 -3 -5 -5 -7 -6 -5 -4 -3 -3 -3 -2 -4 -4 -5 -4 -3 -3 -1 -1 -3 -3 -3 -4 -5 -6 -6 -7 -8 -8 -7 -7 -6 -6 -6 -6 -5 -5 -4 -4
-0 -0 -0 -0 -0 -0 -0 -0 -1 -1 -1 -1 -1 -3 -6 -5 -6 -5 -6 -6 -4 -2 -3 -3 -4 -3 -5 -4 -7 -5 -4 -1 -1 -3 -2 -4 -4 -5 -7 -7 -7 -7 -8 -8 -7 -7 -7 -6 -6 -7 -6 -7 -6 -5
-0 -0 -0 -0 -1 -1 -1 -1 -1 -1 -2 -4 -6 -6 -6 -6 -4 -3 -4 -4 -3 -3 -4 -5 -6 -4 -4 -6 -6 -5 -2 -2 -4 -4 -4 -5 -6 -7 -7 -7 -8 -8 -8 -9 -8 -8 -8 -7 -7 -7 -7 -7 -7 -7
-0 -0 -0 -1 -1 -1 -1 -1 -1 -1 -2 -2 -3 -6 -6 -5 -6 -6 -6 -5 -4 -5 -7 -8 -7 -6 -7 -6 -4 -4 -3 -4 -3 -4 -5 -5 -7 -8 -8 -9 -9 -9 -9 -9 -9 -8 -8 -8 -7 -7 -8 -8 -8 -8
-1 -1 -1 -1 -1 -1 -1 -1 -2 -2 -3 -3 -4 -5 -5 -7 -6 -6 -5 -5 -7 -8 -8 -8 -7 -7 -6 -5 -4 -5 -4 -5 -5 -6 -6 -7 -8 -9 -9 -10 -10 -10 -10 -10 -9 -9 -9 -9 -8 -8 -8 -8 -8 -9
-1 -1 -1 -1 -1 -1 -2 -2 -2 -4 -3 -5 -6 -4 -5 -7 -7 -4 -6 -8 -6 -8 -7 -7 -7 -6 -7 -6 -6 -6 -6 -6 -7 -7 -6 -8 -9 -10 -10 -10 -10 -10 -10 -10 -10 -9 -9 -9 -8 -8 -8 -8 -9 -9
-1 -1 -1 -1 -2 -2 -3 -3 -3 -6 -6 -6 -7 -5 -6 -5 -4 -5 -8 -6 -9 -7 -7 -7 -7 -7 -7 -6 -6 -7 -7 -7 -7 -8 -7 -8 -9 -9 -10 -10 -10 -10 -10 -10 -10 -9 -9 -9 -9 -8 -9 -9 -8 -9
-1 -1 -1 -1 -2 -2 -4 -5 -6 -7 -8 -8 -8 -7 -5 -3 -5 -6 -6 -6 -6 -6 -8 -8 -8 -8 -7 -8 -9 -8 -8 -8 -9 -8 -7 -7 -9 -9 -10 -10 -10 -10 -10 -10 -10 -9 -10 -10 -10 -10 -9 -9 -9 -8
-1 -1 -2 -2 -2 -3 -5 -7 -7 -6 -9 -7 -8 -5 -4 -4 -6 -6 -7 -7 -7 -8 -10 -10 -9 -9 -10 -9 -9 -9 -9 -9 -9 -8 -9 -8 -9 -9 -10 -10 -10 -10 -10 -10 -10 -9 -10 -9 -10 -10 -9 -9 -10 -10
-2 -2 -2 -3 -3 -4 -7 -11 -9 -10 -10 -9 -7 -8 -7 -5 -5 -8 -8 -7 -9 -11 -9 -9 -9 -10 -9 -9 -10 -10 -10 -10 -10 -9 -9 -9 -9 -10 -10 -11 -11 -11 -11 -11 -11 -11 -11 -10 -10 -11 -11 -11 -11 -10
-2 -3 -3 -4 -5 -6 -10 -11 -12 -10 -12 -11 -10 -10 -7 -6 -8 -10 -10 -11 -11 -10 -10 -10 -10 -9 -9 -10 -10 -10 -11 -10 -10 -10 -10 -10 -10 -11 -11 -11 -11 -12 -12 -12 -12 -11 -11 -11 -10 -11 -12 -11 -11 -11
-3 -4 -4 -5 -10 -11 -11 -11 -12 -12 -10 -11 -12 -10 -11 -11 -11 -9 -12 -12 -10 -9 -9 -9 -10 -10 -9 -10 -10 -11 -11 -10 -11 -12 -12 -12 -11 -11 -12 -12 -12 -12 -12 -12 -12 -12 -12 -11 -12 -11 -12 -12 -12 -12
-4 -5 -11 -11 -12 -11 -14 -13 -13 -11 -12 -11 -11 -11 -11 -12 -13 -12 -12 -10 -10 -10 -10 -10 -10 -9 -9 -10 -10 -11 -11 -11 -11 -11 -12 -12 -12 -12 -12 -12 -12 -13 -13 -13 -13 -12 -12 -12 -12 -12 -12 -12 -12 -13
-6 -9 -11 -10 -16 -12 -11 -11 -12 -10 -11 -11 -12 -12 -12 -14 -12 -13 -12 -12 -11 -10 -10 -10 -10 -10 -10 -10 -10 -11 -12 -12 -13 -13 -12 -13 -13 -13 -13 -13 -13 -13 -13 -14 -14 -13 -12 -12 -12 -13 -13 -12 -12 -13
-7 -11 -10 -12 -13 -11 -11 -10 -11 -11 -11 -12 -12 -13 -14 -13 -13 -13 -11 -13 -13 -12 -10 -10 -10 -10 -11 -11 -11 -11 -12 -12 -13 -13 -12 -13 -13 -14 -14 -15 -14 -13 -13 -14 -14 -13 -12 -12 -13 -13 -13 -13 -14 -13
-9 -10 -12 -10 -10 -9 -9 -10 -10 -11 -12 -13 -13 -12 -13 -12 -13 -11 -13 -11 -12 -12 -12 -12 -12 -11 -11 -12 -12 -12 -12 -12 -13 -12 -12 -12 -13 -13 -14 -15 -15 -13 -13 -13 -13 -13 -12 -12 -13 -13 -13 -13 -13 -14
-10 -10 -11 -11 -10 -11 -11 -11 -12 -13 -12 -11 -10 -11 -12 -11 -10 -13 -13 -13 -12 -12 -12 -12 -12 -12 -12 -12 -12 -12 -12 -12 -12 -12 -12 -12 -13 -13 -13 -13 -13 -13 -13 -12 -13 -12 -12 -12 -12 -12 -13 -13 -13 -13
-12 -11 -10 -13 -13 -12 -12 -11 -12 -11 -10 -11 -11 -10 -12 -12 -12 -12 -13 -13 -13 -13 -13 -13 -13 -13 -13 -13 -13 -12 -12 -12 -11 -15 -15 -16 -13 -13 -13 -13 -12 -12 -12 -12 -12 -13 -11 -12 -12 -12 -12 -13 -13 -13
-12 -11 -11 -12 -12 -11 -12 -12 -14 -13 -11 -12 -12 -12 -13 -12 -13 -13 -13 -13 -14 -13 -13 -13 -13 -13 -13 -13 -13 -13 -13 -13 -13 -13 -15 -15 -14 -13 -13 -12 -12 -12 -12 -12 -12 -12 -12 -12 -12 -12 -12 -12 -13 -13
-13 -13 -12 -13 -13 -15 -16 -14 -13 -12 -13 -16 -14 -14 -13 -14 -13 -14 -14 -14 -14 -14 -13 -14 -13 -13 -13 -13 -13 -13 -13 -13 -13 -13 -14 -13 -13 -13 -12 -12 -12 -12 -12 -12 -12 -12 -12 -12 -12 -12 -13 -13 -13 -13
-14 -14 -14 -14 -15 -19 -15 -17 -17 -16 -16 -16 -15 -17 -16 -15 -13 -14 -14 -14 -14 -14 -14 -13 -14 -13 -13 -13 -13 -13 -13 -13 -13 -13 -13 -13 -13 -13 -12 -12 -12 -12 -12 -12 -12 -12 -12 -13 -13 -13 -13 -13 -13 -13
-19 -17 -18 -16 -18 -18 -18 -18 -19 -20 -19 -18 -18 -17 -16 -15 -15 -14 -14 -15 -14 -14 -14 -13 -13 -13 -13 -13 -13 -13 -13 -13 -13 -13 -14 -14 -13 -12 -12 -11 -11 -11 -12 -12 -12 -12 -13 -13 -13 -13 -13 -13 -13 -13